weather.gov     
National Weather Service

Terminal Aerodrome Forecast
NWS Homepage
This page is being discontinued on March 12, 2014.
The same data is available at this site. Please update your bookmarks.
Thank you, and we apologize for the inconvenience.
Please send an email to SR-SRH.Webmaster@noaa.gov with any concerns.


Current Version
Previous Version:    01  02  03  04  05  06  07  08  09  10  11  12  13  14  15  16  17  18  19  20  21  22  23  24  25  
[Printable]
584
FTUS45 KSLC 252340
TAFCDC
TAF
KCDC 252340Z 2600/2624 22022G30KT P6SM FEW120 SCT200
     FM260100 18015KT P6SM SCT040 SCT080
     FM261600 23012G20KT P6SM SCT040 SCT080=


584
FTUS45 KSLC 252340
TAFCDC
TAF
KCDC 252340Z 2600/2624 22022G30KT P6SM FEW120 SCT200
     FM260100 18015KT P6SM SCT040 SCT080
     FM261600 23012G20KT P6SM SCT040 SCT080=




U.S. Dept. of Commerce
NOAA National Weather Service
1325 East West Highway
Silver Spring, MD 20910
E-mail: w-nws.webmaster@noaa.gov
Page last modified: May 16, 2007
NATIONAL WEATHER SERVICE: for Safety, for Work, for Fun - FOR LIFE